Weather Roundup
Issued by NWS

Home | Current Version | Previous Version | Text Only | Print | Product List | Glossary On
Versions: 1 2 3 4 5 6 7 8 9 10 11 12 13 14 15 16 17 18 19 20 21 22 23 24 25 26 27 28 29 30 31 32 33 34 35 36 37 38 39 40 41 42 43 44 45 46 47 48 49 50
480
NZUS93 KARX 270659
HRRWXR

CURRENT HOURLY OBSERVATIONS ACROSS
MUCH OF THE UPPER MISSISSIPPI VALLEY
NATIONAL WEATHER SERVICE LA CROSSE WI
200 AM CDT SAT MAY 27 2017


...SOUTHEAST MINNESOTA...


CITY           SKY/WX    TMP DP  RH WIND       PRES   REMARKS
ROCHESTER      CLEAR     56  54  93 W7        29.88S
ROCHESTER/MAYO FAIR      62  52  69 W6        29.87S
WINONA         PTCLDY    59  55  88 SE5       29.86S
AUSTIN         FOG       55  54  94 CALM      29.87S VSB 1/2
ALBERT LEA     CLEAR     55  54  94 CALM      29.88R
DODGE CENTER   CLEAR     55  48  76 W3        29.87F
PRESTON        CLOUDY    58  55  92 S9        29.88F
OWATONNA       CLEAR     54  46  76 CALM      29.88R
FARIBAULT      CLEAR     54  50  87 CALM      29.87S
$$

...ELSEWHERE IN MINNESOTA...


CITY           SKY/WX    TMP DP  RH WIND       PRES   REMARKS
MINNEAPOLIS    CLEAR     61  45  55 CALM      29.85S
INTNL FALLS    CLEAR     43  40  89 W5        29.77R
DULUTH         CLEAR     54  48  80 NW7       29.79S
RED WING       CLOUDY    55  54  94 CALM      29.84F
REDWOOD FALLS  CLEAR     56  44  64 W5        29.87S
MANKATO        NOT AVBL
WORTHINGTON    CLEAR     53  43  68 NW5       29.92R
FAIRMONT       CLEAR     58  45  62 NW7       29.89R
$$

...SOUTHWEST WISCONSIN...


CITY           SKY/WX    TMP DP  RH WIND       PRES   REMARKS
LA CROSSE      CLEAR     61  58  90 S5        29.87R
PRAIRIE DU CHI CLEAR     54  52  95 CALM      29.88R
BOSCOBEL       FOG       53  52  96 CALM      29.88S VSB 1/4
LONE ROCK      MOCLDY    52  51  97 CALM      29.88S FOG
PLATTEVILLE    CLEAR     55  55 100 E7        29.88F
FORT MC COY    PTCLDY    49  49 100 CALM      29.89R
CAMP DOUGLAS   CLEAR     51  50  99 CALM      29.87S
MAUSTON-NEW LI SUNNY     55  54  97 SE5       29.86F
VIROQUA        FAIR      55  55  97 CALM      29.89R
WIS DELLS      CLEAR     51  49  94 S3        29.88F FOG
$$

...ELSEWHERE IN WISCONSIN...


CITY           SKY/WX    TMP DP  RH WIND       PRES   REMARKS
MILWAUKEE      PTCLDY    51  50  96 CALM      29.88S
MADISON        FOG       49  49 100 CALM      29.88F VSB 1/4
GREEN BAY      CLEAR     54  54 100 S3        29.88R
EAU CLAIRE     NOT AVBL
BLACK RVR FLS  PTSUNNY   57  57 100 CALM      29.86F
MEDFORD        CLOUDY    58  54  86 S8        29.86S
WAUSAU         PTCLDY    54  52  93 CALM      29.85F
WIS RAPIDS     CLEAR     55  53  93 SW3       29.88S
MARSHFIELD     PTCLDY    55  51  86 SW6       29.86S
RICE LAKE      FOG       55  54  97 CALM      29.85R VSB 1/4
$$

...NORTHEAST IOWA...


CITY           SKY/WX    TMP DP  RH WIND       PRES   REMARKS
WATERLOO       PTCLDY    53  52  96 CALM      29.87S FOG
DUBUQUE        CLEAR     55  53  93 S3        29.88S
DECORAH        CLOUDY    57  55  94 CALM      29.89R
MASON CITY     CLEAR     54  48  80 NW7       29.89S
CHARLES CITY   CLEAR     57  57 100 S6        29.88F
OELWEIN        FOG       55  55 100 CALM      29.89S VSB<1/4
$$

...ELSEWHERE IN IOWA...


CITY           SKY/WX    TMP DP  RH WIND       PRES   REMARKS
DES MOINES     PTCLDY    65  61  87 NE3       29.86R
IOWA CITY      FOG       56  54  93 CALM      29.87F VSB 1/2
FORT DODGE     CLEAR     55  46  71 N3        29.89S
MARSHALLTOWN   CLEAR     56  56 100 CALM      29.87R FOG
CEDAR RAPIDS   FOG       55  55 100 SE5       29.86F VSB 1/4
$$

...NORTHERN ILLINOIS...


CITY           SKY/WX    TMP DP  RH WIND       PRES   REMARKS
CHICAGO-OHARE  MOCLDY    56  51  84 NE6       29.86S
CHICAGO-MIDWAY CLOUDY    57  54  89 N8        29.86R
MOLINE         CLOUDY    60  56  86 E7        29.87F FOG
ROCKFORD       CLEAR     54  52  93 N3        29.91R FOG
PEORIA         CLOUDY    61  61 100 N7        29.86S FOG
$$

NOTE: "FAIR" INDICATES FEW OR NO CLOUDS BELOW 12,000 FEET WITH NO
SIGNIFICANT WEATHER AND/OR OBSTRUCTIONS TO VISIBILITY. WIND
SPEEDS ARE IN MILES-PER-HOUR.




USA.gov is the U.S. government's official web portal to all federal, state and local government web resources and services.